TimeCDT,TemperatureF,Dew PointF,Humidity,Sea Level PressureIn,VisibilityMPH,Wind Direction,Wind SpeedMPH,Gust SpeedMPH,PrecipitationIn,Events,Conditions,WindDirDegrees,DateUTC
12:13 AM,48.2,44.6,87,30.10,10.0,Calm,Calm,-,N/A,,Scattered Clouds,0,2013-10-04 05:13:00
12:33 AM,46.4,41.0,81,30.10,10.0,Calm,Calm,-,N/A,,Clear,0,2013-10-04 05:33:00
12:53 AM,44.6,41.0,87,30.11,10.0,Calm,Calm,-,N/A,,Scattered Clouds,0,2013-10-04 05:53:00
1:13 AM,44.6,41.0,87,30.12,10.0,Calm,Calm,-,N/A,,Overcast,0,2013-10-04 06:13:00
1:33 AM,44.6,41.0,87,30.12,10.0,Calm,Calm,-,N/A,,Overcast,0,2013-10-04 06:33:00
1:53 AM,44.6,39.2,81,30.12,10.0,Calm,Calm,-,N/A,,Scattered Clouds,0,2013-10-04 06:53:00
2:13 AM,42.8,39.2,87,30.12,10.0,Calm,Calm,-,N/A,,Clear,0,2013-10-04 07:13:00
2:33 AM,41.0,37.4,87,30.12,10.0,Calm,Calm,-,N/A,,Clear,0,2013-10-04 07:33:00
2:53 AM,39.2,37.4,93,30.13,10.0,Calm,Calm,-,N/A,,Clear,0,2013-10-04 07:53:00
3:13 AM,39.2,35.6,87,30.13,10.0,Calm,Calm,-,N/A,,Clear,0,2013-10-04 08:13:00
3:33 AM,37.4,35.6,93,30.13,10.0,Calm,Calm,-,N/A,,Scattered Clouds,0,2013-10-04 08:33:00
3:53 AM,37.4,35.6,93,30.12,10.0,Calm,Calm,-,N/A,,Scattered Clouds,0,2013-10-04 08:53:00
4:13 AM,37.4,35.6,93,30.13,10.0,Calm,Calm,-,N/A,,Clear,0,2013-10-04 09:13:00
4:33 AM,37.4,33.8,87,30.13,10.0,Calm,Calm,-,N/A,,Clear,0,2013-10-04 09:33:00
4:53 AM,35.6,33.8,93,30.14,10.0,Calm,Calm,-,N/A,,Clear,0,2013-10-04 09:53:00
5:13 AM,35.6,33.8,93,30.15,10.0,Calm,Calm,-,N/A,,Clear,0,2013-10-04 10:13:00
5:33 AM,35.6,33.8,93,30.17,10.0,Calm,Calm,-,N/A,,Clear,0,2013-10-04 10:33:00
5:53 AM,35.6,33.8,93,30.17,10.0,Calm,Calm,-,N/A,,Clear,0,2013-10-04 10:53:00
6:13 AM,35.6,33.8,93,30.19,10.0,Calm,Calm,-,N/A,,Clear,0,2013-10-04 11:13:00
6:33 AM,37.4,35.6,93,30.19,10.0,Calm,Calm,-,N/A,,Clear,0,2013-10-04 11:33:00
6:53 AM,39.2,37.4,93,30.19,10.0,Calm,Calm,-,N/A,,Clear,0,2013-10-04 11:53:00
7:13 AM,42.8,39.2,87,30.20,10.0,Calm,Calm,-,N/A,,Clear,0,2013-10-04 12:13:00
7:33 AM,39.2,37.4,93,30.19,10.0,Calm,Calm,-,N/A,,Clear,0,2013-10-04 12:33:00
7:53 AM,41.0,39.2,93,30.19,10.0,Calm,Calm,-,N/A,,Clear,0,2013-10-04 12:53:00
8:13 AM,42.8,41.0,93,30.20,10.0,North,3.5,-,N/A,,Clear,10,2013-10-04 13:13:00
8:33 AM,44.6,42.8,93,30.20,10.0,Calm,Calm,-,N/A,,Clear,0,2013-10-04 13:33:00
8:53 AM,44.6,42.8,93,30.21,10.0,North,3.5,-,N/A,,Scattered Clouds,360,2013-10-04 13:53:00
9:13 AM,46.4,44.6,93,30.22,10.0,NNE,4.6,-,N/A,,Mostly Cloudy,20,2013-10-04 14:13:00
9:33 AM,48.2,44.6,87,30.21,10.0,North,3.5,-,N/A,,Mostly Cloudy,10,2013-10-04 14:33:00
9:54 AM,48.2,44.6,87,30.22,10.0,NE,3.5,-,N/A,,Mostly Cloudy,40,2013-10-04 14:54:00
10:13 AM,50.0,46.4,87,30.22,10.0,NE,3.5,-,N/A,,Overcast,50,2013-10-04 15:13:00
10:33 AM,51.8,46.4,82,30.22,10.0,Calm,Calm,-,N/A,,Overcast,0,2013-10-04 15:33:00
10:53 AM,55.4,48.2,77,30.22,10.0,NE,4.6,-,N/A,,Mostly Cloudy,50,2013-10-04 15:53:00
11:13 AM,55.4,48.2,77,30.22,10.0,ENE,5.8,-,N/A,,Scattered Clouds,60,2013-10-04 16:13:00
11:33 AM,55.4,46.4,72,30.22,10.0,NNE,3.5,-,N/A,,Clear,20,2013-10-04 16:33:00
11:53 AM,55.4,46.4,72,30.22,10.0,NNE,6.9,-,N/A,,Scattered Clouds,20,2013-10-04 16:53:00
12:13 PM,55.4,46.4,72,30.22,10.0,Calm,Calm,-,N/A,,Mostly Cloudy,0,2013-10-04 17:13:00
12:33 PM,55.4,44.6,67,30.22,10.0,NNE,4.6,-,N/A,,Overcast,30,2013-10-04 17:33:00
12:53 PM,57.2,46.4,67,30.22,10.0,NE,4.6,-,N/A,,Overcast,40,2013-10-04 17:53:00
1:13 PM,60.8,46.4,59,30.21,10.0,ENE,4.6,-,N/A,,Mostly Cloudy,60,2013-10-04 18:13:00
1:33 PM,60.8,44.6,55,30.21,10.0,NE,3.5,-,N/A,,Scattered Clouds,50,2013-10-04 18:33:00
1:53 PM,60.8,46.4,59,30.20,10.0,North,6.9,-,N/A,,Mostly Cloudy,10,2013-10-04 18:53:00
2:13 PM,60.8,42.8,52,30.19,10.0,NNE,4.6,-,N/A,,Overcast,30,2013-10-04 19:13:00
2:33 PM,57.2,42.8,59,30.19,10.0,NNE,5.8,-,N/A,,Overcast,20,2013-10-04 19:33:00
2:53 PM,57.2,42.8,59,30.19,10.0,NNE,5.8,-,N/A,,Overcast,30,2013-10-04 19:53:00
3:13 PM,55.4,42.8,63,30.19,10.0,NE,4.6,-,N/A,,Overcast,40,2013-10-04 20:13:00
3:33 PM,55.4,42.8,63,30.19,10.0,NE,3.5,-,N/A,,Overcast,40,2013-10-04 20:33:00
3:53 PM,55.4,42.8,63,30.19,10.0,ENE,3.5,-,N/A,,Overcast,60,2013-10-04 20:53:00
4:13 PM,53.6,42.8,67,30.20,10.0,Calm,Calm,-,N/A,,Overcast,0,2013-10-04 21:13:00
4:33 PM,53.6,42.8,67,30.19,10.0,NNE,3.5,-,N/A,,Overcast,20,2013-10-04 21:33:00
4:53 PM,53.6,42.8,67,30.18,10.0,NE,3.5,-,N/A,,Overcast,40,2013-10-04 21:53:00
5:13 PM,53.6,42.8,67,30.18,10.0,Calm,Calm,-,N/A,,Overcast,0,2013-10-04 22:13:00
5:33 PM,53.6,42.8,67,30.19,10.0,Calm,Calm,-,N/A,,Mostly Cloudy,0,2013-10-04 22:33:00
5:53 PM,53.6,42.8,67,30.20,10.0,Calm,Calm,-,N/A,,Overcast,0,2013-10-04 22:53:00
6:13 PM,53.6,42.8,67,30.20,10.0,Calm,Calm,-,N/A,,Overcast,0,2013-10-04 23:13:00
6:33 PM,51.8,42.8,71,30.19,10.0,Calm,Calm,-,N/A,,Overcast,0,2013-10-04 23:33:00
6:53 PM,51.8,42.8,71,30.19,10.0,NE,3.5,-,N/A,,Mostly Cloudy,40,2013-10-04 23:53:00
7:13 PM,51.8,42.8,71,30.19,10.0,Calm,Calm,-,N/A,,Mostly Cloudy,0,2013-10-05 00:13:00
7:33 PM,51.8,42.8,71,30.19,10.0,NNE,5.8,-,N/A,,Mostly Cloudy,30,2013-10-05 00:33:00
7:53 PM,51.8,42.8,71,30.19,10.0,NE,3.5,-,N/A,Rain,Light Rain,40,2013-10-05 00:53:00
8:13 PM,51.8,42.8,71,30.19,10.0,NNE,3.5,-,N/A,,Light Drizzle,20,2013-10-05 01:13:00
8:33 PM,51.8,42.8,71,30.19,10.0,NNE,5.8,-,N/A,,Overcast,30,2013-10-05 01:33:00
8:53 PM,51.8,42.8,71,30.19,10.0,NNE,5.8,-,N/A,,Overcast,30,2013-10-05 01:53:00
9:13 PM,51.8,42.8,71,30.19,10.0,NNE,4.6,-,N/A,,Overcast,30,2013-10-05 02:13:00
9:33 PM,51.8,42.8,71,30.19,10.0,NNE,4.6,-,N/A,,Overcast,20,2013-10-05 02:33:00
9:53 PM,51.8,42.8,71,30.19,10.0,NNE,6.9,-,N/A,,Overcast,30,2013-10-05 02:53:00
10:13 PM,51.8,42.8,71,30.20,10.0,NE,3.5,-,N/A,,Overcast,40,2013-10-05 03:13:00
10:33 PM,50.0,42.8,76,30.19,10.0,NE,4.6,-,N/A,,Overcast,40,2013-10-05 03:33:00
10:53 PM,50.0,42.8,76,30.18,10.0,NE,4.6,-,N/A,,Overcast,40,2013-10-05 03:53:00
11:13 PM,50.0,42.8,76,30.17,10.0,NE,6.9,-,N/A,,Overcast,50,2013-10-05 04:13:00
11:33 PM,50.0,42.8,76,30.17,10.0,Calm,Calm,-,N/A,,Overcast,0,2013-10-05 04:33:00
11:53 PM,50.0,41.0,71,30.16,10.0,ENE,3.5,-,N/A,,Overcast,70,2013-10-05 04:53:00